Weather History for Columbia Airport, CA

Change the Weather History Date:

Tuesday, April 15, 2014

  Actual Average (KMOD) Record (KMOD)
Temperature  
Mean Temperature 62 °F -  
Max Temperature 77 °F 74 °F 93 °F (1994)
Min Temperature 46 °F 49 °F 37 °F (1970)
Degree Days  
Heating Degree Days 4 4  
Month to date heating degree days 81  
Since 1 July heating degree days 2086  
Cooling Degree Days 0 1  
Month to date cooling degree days 11  
Year to date cooling degree days 16  
Growing Degree Days 12 (Base 50)    
Moisture  
Dew Point 43 °F    
Average Humidity 59    
Maximum Humidity 93    
Minimum Humidity 22    
Precipitation  
Precipitation 0.00 in 0.03 in 0.26 in (1978)
Month to date precipitation 0.55  
Year to date precipitation 7.58  
Since 1 July precipitation 11.94  
Snow  
Snow 0.00 in - - ()
Month to date snowfall  
Since 1 July snowfall  
Snow Depth -    
Sea Level Pressure  
Sea Level Pressure 29.98 in    
Wind  
Wind Speed 2 mph (SW)    
Max Wind Speed 9 mph    
Max Gust Speed -    
Visibility 9 miles    
Events      
T = Trace of Precipitation, MM = Missing Value Source: NWS Daily Summary

Daily Weather History Graph

Daily Weather History Graph

Search for Another Location

Airport:

Trip Planner

Search our weather history database for the weather conditions in past years. The results will help you decide how hot, cold, wet, or windy it might be!

Date:

Astronomy

Apr. 15, 2014 Rise Set
Actual Time 6:26 AM PDT 7:37 PM PDT
Civil Twilight 5:58 AM PDT 8:05 PM PDT
Nautical Twilight 5:26 AM PDT 8:37 PM PDT
Astronomical Twilight 4:52 AM PDT 9:11 PM PDT
Moon 8:23 PM PDT (4/15) 6:37 AM PDT (4/15)
Length of Visible Light 14h 06m
Length of Day
13h 11m
Full, 100% of the Moon is Illuminated
Apr 15
Full
Apr 22
Last Quarter
Apr 28
New
May 6
First Quarter
May 14
Full

Hourly Weather History & Observations

Time (PDT) Temp. Windchill Dew Point Humidity Pressure Visibility Wind Dir Wind Speed Gust Speed Precip Events Conditions
12:15 AM 50.0 °F - 46.4 °F 87% 30.07 in 10.0 mi Calm Calm - N/A   Clear
12:35 AM 48.2 °F - 44.6 °F 87% 30.07 in 10.0 mi Calm Calm - N/A   Clear
12:55 AM 48.2 °F - 44.6 °F 87% 30.06 in 10.0 mi Calm Calm - N/A   Clear
1:15 AM 48.2 °F - 44.6 °F 87% 30.06 in 10.0 mi Calm Calm - N/A   Clear
1:35 AM 48.2 °F - 44.6 °F 87% 30.06 in 10.0 mi Calm Calm - N/A   Clear
1:55 AM 48.2 °F - 44.6 °F 87% 30.06 in 10.0 mi Calm Calm - N/A   Clear
2:15 AM 48.2 °F - 44.6 °F 87% 30.05 in 10.0 mi Calm Calm - N/A   Clear
2:35 AM 46.4 °F - 44.6 °F 93% 30.04 in 10.0 mi Calm Calm - N/A   Clear
2:55 AM 46.4 °F - 42.8 °F 87% 30.04 in 10.0 mi Calm Calm - N/A   Clear
3:15 AM 46.4 °F - 44.6 °F 93% 30.03 in 10.0 mi Calm Calm - N/A   Clear
3:35 AM 46.4 °F - 42.8 °F 87% 30.03 in 10.0 mi Calm Calm - N/A   Clear
3:55 AM 46.4 °F - 42.8 °F 87% 30.02 in 10.0 mi Calm Calm - N/A   Clear
4:35 AM 46.4 °F - 42.8 °F 87% 30.02 in 10.0 mi Calm Calm - N/A   Clear
4:55 AM 46.4 °F 45.2 °F 42.8 °F 87% 30.02 in 10.0 mi NE 3.5 mph - N/A   Clear
5:15 AM 46.4 °F - 44.6 °F 93% 30.01 in 10.0 mi Calm Calm - N/A   Clear
5:35 AM 46.4 °F - 44.6 °F 93% 30.01 in 10.0 mi Calm Calm - N/A   Clear
5:55 AM 48.2 °F - 44.6 °F 87% 30.01 in 10.0 mi NE 3.5 mph - N/A   Clear
6:15 AM 48.2 °F - 44.6 °F 87% 30.02 in 10.0 mi Calm Calm - N/A   Clear
6:35 AM 48.2 °F - 44.6 °F 87% 30.02 in 10.0 mi ENE 4.6 mph - N/A   Clear
6:55 AM 48.2 °F - 44.6 °F 87% 30.02 in 10.0 mi Calm Calm - N/A   Clear
7:15 AM 50.0 °F - 46.4 °F 87% 30.02 in 10.0 mi Calm Calm - N/A   Clear
7:35 AM 53.6 °F - 46.4 °F 77% 30.02 in 10.0 mi Calm Calm - N/A   Clear
7:55 AM 57.2 °F - 48.2 °F 72% 30.02 in 10.0 mi Calm Calm - N/A   Clear
8:15 AM 62.6 °F - 48.2 °F 59% 30.03 in 10.0 mi Calm Calm - N/A   Clear
8:35 AM 66.2 °F - 50.0 °F 56% 30.03 in 10.0 mi Calm Calm - N/A   Clear
8:55 AM 66.2 °F - 48.2 °F 52% 30.03 in 10.0 mi NNW 3.5 mph - N/A   Clear
9:35 AM 69.8 °F - 46.4 °F 43% 30.02 in 10.0 mi South 4.6 mph - N/A   Clear
9:55 AM 71.6 °F - 44.6 °F 38% 30.02 in 10.0 mi Calm Calm - N/A   Clear
10:15 AM 73.4 °F - 46.4 °F 38% 30.02 in 10.0 mi SSW 4.6 mph - N/A   Clear
10:35 AM 73.4 °F - 44.6 °F 36% 30.02 in 10.0 mi WSW 3.5 mph - N/A   Clear
10:55 AM 73.4 °F - 44.6 °F 36% 30.01 in 10.0 mi South 5.8 mph - N/A   Clear
11:15 AM 73.4 °F - 44.6 °F 36% 30.00 in 10.0 mi SSW 3.5 mph - N/A   Clear
11:35 AM 75.2 °F - 41.0 °F 29% 29.99 in 10.0 mi SE 4.6 mph - N/A   Clear
11:55 AM 75.2 °F - 35.6 °F 24% 29.99 in 10.0 mi South 5.8 mph - N/A   Clear
12:15 PM 75.2 °F - 44.6 °F 34% 29.99 in 9.0 mi SW 6.9 mph - N/A   Clear
12:35 PM 75.2 °F - 39.2 °F 27% 29.99 in 10.0 mi SSW 8.1 mph - N/A   Clear
12:55 PM 75.2 °F - 39.2 °F 27% 29.99 in 10.0 mi SW 8.1 mph - N/A   Clear
1:15 PM 75.2 °F - 35.6 °F 24% 29.99 in 10.0 mi SSW 6.9 mph - N/A   Clear
1:35 PM 77.0 °F - 35.6 °F 22% 29.98 in 9.0 mi SSW 5.8 mph - N/A   Clear
1:55 PM 77.0 °F - 37.4 °F 24% 29.97 in 10.0 mi SSW 9.2 mph - N/A   Clear
2:15 PM 77.0 °F - 41.0 °F 28% 29.96 in 9.0 mi SW 6.9 mph - N/A   Clear
2:35 PM 77.0 °F - 42.8 °F 29% 29.96 in 9.0 mi SSW 6.9 mph - N/A   Clear
2:55 PM 77.0 °F - 41.0 °F 28% 29.95 in 9.0 mi SSW 8.1 mph - N/A   Clear
3:15 PM 77.0 °F - 42.8 °F 29% 29.94 in 9.0 mi West 6.9 mph - N/A   Clear
3:35 PM 77.0 °F - 42.8 °F 29% 29.94 in 10.0 mi SW 8.1 mph - N/A   Clear
3:55 PM 77.0 °F - 42.8 °F 29% 29.94 in 10.0 mi SSW 9.2 mph - N/A   Clear
4:15 PM 75.2 °F - 41.0 °F 29% 29.93 in 10.0 mi SSW 6.9 mph - N/A   Clear
4:35 PM 75.2 °F - 41.0 °F 29% 29.93 in 10.0 mi SSW 8.1 mph - N/A   Clear
4:55 PM 75.2 °F - 39.2 °F 27% 29.92 in 9.0 mi South 5.8 mph - N/A   Clear
5:15 PM 73.4 °F - 37.4 °F 27% 29.92 in 9.0 mi WNW 5.8 mph - N/A   Clear
5:35 PM 73.4 °F - 39.2 °F 29% 29.91 in 10.0 mi WSW 6.9 mph - N/A   Clear
5:55 PM 71.6 °F - 41.0 °F 33% 29.91 in 8.0 mi West 5.8 mph - N/A   Clear
6:15 PM 71.6 °F - 41.0 °F 33% 29.90 in 10.0 mi West 6.9 mph - N/A   Clear
6:35 PM 68.0 °F - 41.0 °F 37% 29.90 in 10.0 mi West 3.5 mph - N/A   Clear
6:55 PM 66.2 °F - 41.0 °F 40% 29.90 in 5.0 mi Calm Calm - N/A   Clear
7:15 PM 64.4 °F - 41.0 °F 42% 29.90 in 5.0 mi NW 5.8 mph - N/A   Clear
7:35 PM 62.6 °F - 42.8 °F 48% 29.90 in 10.0 mi Calm Calm - N/A   Clear
7:55 PM 59.0 °F - 44.6 °F 59% 29.90 in 10.0 mi NE 3.5 mph - N/A   Clear
8:15 PM 57.2 °F - 44.6 °F 63% 29.91 in 10.0 mi NE 3.5 mph - N/A   Clear
8:35 PM 55.4 °F - 44.6 °F 67% 29.91 in 7.0 mi Calm Calm - N/A   Clear
8:55 PM 55.4 °F - 44.6 °F 67% 29.92 in 7.0 mi NE 3.5 mph - N/A   Clear
9:15 PM 53.6 °F - 44.6 °F 72% 29.92 in 7.0 mi Calm Calm - N/A   Clear
9:35 PM 51.8 °F - 42.8 °F 71% 29.92 in 5.0 mi Calm Calm - N/A   Clear
9:55 PM 50.0 °F - 42.8 °F 76% 29.92 in 7.0 mi ENE 3.5 mph - N/A   Clear
10:15 PM 50.0 °F - 42.8 °F 76% 29.91 in 8.0 mi Calm Calm - N/A   Clear
10:35 PM 50.0 °F - 44.6 °F 82% 29.91 in 10.0 mi ENE 4.6 mph - N/A   Clear
10:55 PM 50.0 °F - 42.8 °F 76% 29.92 in 8.0 mi Calm Calm - N/A   Clear
11:15 PM 48.2 °F - 42.8 °F 82% 29.91 in 10.0 mi Calm Calm - N/A   Clear
11:35 PM 48.2 °F - 42.8 °F 82% 29.91 in 10.0 mi NE 3.5 mph - N/A   Clear
11:55 PM 48.2 °F - 41.0 °F 76% 29.91 in 8.0 mi Calm Calm - N/A   Clear